Lapse_Rate
4.8 5.0 6.5 6.0 6.5 6.5 6.5 6.5 6.5 6.5 6.5 6.9 7.1 6.6 6.6 6.9 6.5 6.5 6.0 4.9 5.0 5.1 6.2 6.1 6.2 6.3 5.8 5.6 5.3 5.4 5.4 5.3 5.1 5.3 5.1 5.2 5.5 5.6 5.7 5.8 6.0 6.0 6.0 6.2 6.2 6.3 6.4 6.4 6.5
4.9 5.9 5.5 5.7 6.5 6.5 6.5 6.5 6.5 6.5 6.9 7.2 7.3 7.2 6.8 6.5 7.7 6.0 5.7 5.9 5.7 5.4 5.3 5.7 6.1 6.1 5.7 5.5 5.3 5.6 5.6 5.6 5.3 5.2 5.0 5.2 5.5 5.6 5.7 5.8 5.8 6.0 6.1 6.2 6.0 6.1 6.1 6.3 6.5
5.7 6.5 5.6 6.5 6.5 6.5 6.5 6.5 6.5 6.7 7.4 7.1 6.9 7.4 7.2 6.9 6.8 6.2 5.6 6.2 5.9 5.6 5.5 5.9 6.0 6.0 5.8 5.5 5.3 5.5 5.6 5.4 5.4 5.2 5.3 5.2 5.4 5.6 5.6 5.7 6.1 6.2 6.2 6.3 6.2 6.0 6.0 6.1 6.2
6.9 5.9 6.1 6.5 6.5 6.5 6.5 6.5 6.2 6.6 7.1 7.4 7.3 6.5 7.8 8.2 7.4 6.7 6.3 6.1 5.6 5.6 5.6 6.1 6.0 6.0 5.8 5.6 5.5 5.4 5.6 5.4 5.3 5.2 5.3 5.3 5.5 5.5 5.6 5.9 6.1 6.1 6.2 6.3 6.3 6.1 6.1 6.2 6.2
6.1 5.8 6.5 6.5 6.5 6.5 6.5 6.7 6.7 6.5 6.7 7.0 7.2 6.6 7.0 7.6 7.4 6.6 6.3 6.2 5.2 5.1 5.4 5.8 6.0 5.9 5.7 5.6 5.6 5.5 5.5 5.4 5.1 5.2 5.3 5.4 5.4 5.6 5.8 6.0 6.2 6.2 6.4 6.4 6.4 6.4 6.4 6.3 6.2
6.2 5.9 6.5 6.5 6.5 6.5 6.5 6.9 6.8 6.7 7.0 7.2 7.0 6.8 6.4 7.9 7.2 7.2 6.9 5.7 5.4 4.6 4.9 5.6 5.8 5.8 5.6 5.5 5.5 5.5 5.5 5.1 5.0 5.2 5.4 5.3 5.6 5.7 5.9 6.1 6.2 6.5 6.6 6.4 6.4 6.4 6.5 6.3 6.4
6.5 6.5 6.5 6.5 6.5 6.5 6.5 7.1 6.6 6.7 6.8 6.8 7.5 6.5 6.5 7.6 7.9 7.8 6.7 6.0 5.3 5.0 4.6 5.0 5.5 5.7 5.7 5.6 5.6 5.5 5.2 5.1 5.1 5.2 5.2 5.2 5.6 5.8 5.9 6.2 6.3 6.6 6.4 6.3 6.3 6.3 6.1 6.2 6.8
7.1 6.5 6.5 6.5 6.5 6.5 6.6 6.8 7.1 6.9 6.7 8.0 7.7 6.5 6.5 7.2 7.7 8.0 6.6 6.0 5.4 4.7 4.3 4.1 4.8 5.2 5.2 5.4 5.6 5.2 5.1 5.0 4.9 5.0 5.1 5.4 5.6 6.1 6.5 6.3 6.1 6.4 6.4 6.2 6.3 6.4 6.2 6.2 7.1
6.4 6.5 6.5 6.5 6.5 6.5 6.8 6.5 7.4 7.6 7.3 7.4 7.7 7.3 6.4 7.5 8.0 7.9 7.2 6.0 5.1 5.0 4.0 3.9 3.7 3.9 4.3 4.4 4.9 5.1 5.0 4.7 4.8 4.9 5.3 5.3 5.2 5.5 5.8 6.0 6.3 6.6 6.6 6.3 6.4 6.5 6.1 6.2 5.8
6.4 6.5 6.5 6.5 6.5 6.5 6.7 6.7 6.7 6.8 6.9 7.0 7.3 7.2 7.7 8.2 8.1 7.3 7.2 5.4 4.8 4.3 4.3 3.9 3.4 3.0 3.5 4.7 4.3 4.0 4.0 4.2 4.2 4.3 4.8 5.1 5.1 5.2 5.4 5.9 6.4 6.5 6.6 6.1 6.1 6.4 6.4 6.2 5.2
6.6 6.5 6.5 6.5 6.5 6.1 6.4 6.6 7.1 6.7 6.5 6.8 6.9 7.2 7.5 7.7 7.8 7.5 6.8 5.6 5.0 4.0 4.3 4.1 3.6 3.3 3.3 4.2 3.0 2.8 3.0 3.2 3.3 3.6 4.2 4.4 5.1 4.7 5.0 4.9 5.0 5.8 6.0 5.4 5.6 5.4 5.2 5.1 5.1
6.5 6.7 6.7 6.2 6.4 6.1 6.5 6.8 6.7 6.8 6.7 6.6 6.3 6.5 7.0 7.5 7.1 7.1 6.4 6.2 5.8 4.9 4.5 3.8 3.8 3.4 3.3 3.3 2.6 2.3 2.5 2.7 2.6 3.5 3.7 3.6 3.6 4.5 3.7 3.8 3.6 4.6 4.7 4.7 4.6 4.4 5.0 5.1 5.9
6.5 6.5 6.8 6.0 6.5 5.2 6.2 6.6 6.6 6.7 7.4 7.8 7.1 7.1 6.4 6.9 6.7 6.3 6.2 6.2 5.5 4.9 4.8 4.3 4.1 3.7 3.6 2.9 3.2 2.9 3.3 3.3 3.4 3.7 4.3 4.2 4.5 3.5 4.5 4.0 4.5 4.7 4.6 4.4 3.8 4.5 4.5 4.8 5.9
6.2 6.4 6.7 6.6 6.4 5.7 6.3 6.3 5.6 6.8 7.6 7.6 7.1 7.1 7.0 7.0 6.9 6.7 7.4 6.5 5.9 5.1 4.8 5.2 4.4 3.9 3.9 3.6 2.7 2.9 4.4 4.4 4.2 4.6 4.7 5.0 4.7 3.7 3.9 3.4 4.0 4.2 5.1 4.8 4.9 4.4 4.3 4.4 4.8
6.2 6.5 6.5 6.4 6.4 6.3 6.2 6.5 6.5 6.9 7.4 7.2 7.4 7.5 7.6 7.2 7.2 7.1 6.5 6.3 5.6 5.5 5.2 5.6 4.8 4.4 4.1 4.5 4.1 4.6 5.2 4.7 5.2 5.3 5.1 5.9 4.8 4.0 3.9 3.7 4.1 5.0 5.3 5.3 4.9 4.9 4.6 3.8 4.1
6.5 6.5 6.5 6.5 6.5 6.3 5.8 6.5 6.5 7.0 7.0 6.9 7.3 7.4 7.4 7.0 6.1 6.1 5.8 5.5 5.8 5.2 5.6 5.9 6.4 5.1 4.3 4.3 4.2 4.7 5.4 4.9 4.9 4.6 4.8 5.5 5.0 5.1 4.5 4.0 3.7 4.9 4.5 4.1 3.7 3.9 3.8 4.3 3.5
6.5 6.5 6.5 6.5 6.4 6.5 6.5 6.5 6.5 7.0 6.9 6.6 6.7 7.0 6.5 5.5 5.6 6.2 6.2 5.5 5.9 5.5 5.4 5.4 6.4 5.2 4.6 3.5 3.5 4.1 5.1 4.5 4.3 4.8 4.5 5.1 5.2 5.1 4.5 3.7 4.2 4.9 4.1 3.4 3.6 4.4 4.1 4.0 2.9
6.5 6.5 6.5 6.5 6.5 6.5 6.5 6.5 6.5 6.7 6.7 6.6 6.6 6.7 6.4 5.8 6.1 5.7 5.5 5.8 5.8 4.8 4.9 5.1 5.9 5.1 4.4 3.6 3.2 3.4 3.3 3.5 4.2 3.7 4.5 5.2 4.5 5.0 4.9 4.0 4.5 4.9 3.8 3.1 3.6 4.4 4.1 3.4 2.9
6.5 6.5 6.5 6.5 6.5 6.5 6.5 6.5 6.5 6.4 6.4 6.4 6.5 6.5 6.6 6.3 6.3 5.1 5.2 5.5 6.0 4.3 4.1 4.3 4.8 4.6 4.6 3.1 3.2 2.9 3.2 3.1 3.4 3.5 5.1 5.0 5.1 4.9 4.5 4.0 4.2 4.0 3.1 3.8 3.6 3.7 3.7 3.4 2.6
6.5 6.5 6.5 6.5 6.5 6.5 6.5 6.5 6.5 6.5 6.4 6.5 6.5 6.5 6.6 6.5 6.0 5.3 5.1 4.9 5.5 4.6 4.3 4.3 4.0 4.2 4.4 4.5 4.6 3.8 3.0 3.0 3.1 3.4 4.3 4.8 4.8 4.9 4.2 3.4 3.3 3.7 3.9 3.1 3.6 3.5 2.1 2.3 2.8
6.5 6.5 6.5 6.5 6.5 6.5 6.5 6.5 6.5 6.5 6.1 5.6 6.6 6.7 6.8 6.4 5.8 5.3 5.1 4.9 4.9 4.9 3.9 4.2 3.5 3.6 4.1 4.1 3.8 3.0 3.1 2.9 3.0 3.4 3.9 3.2 4.7 4.8 4.6 4.2 3.3 3.1 2.9 3.0 3.3 3.0 3.3 3.4 2.8
6.5 6.5 6.5 6.5 6.5 6.5 6.5 6.5 6.5 6.5 6.5 6.5 6.2 6.4 6.6 6.6 6.4 5.3 5.5 4.9 4.9 4.5 4.2 4.1 3.4 3.2 3.7 3.6 4.6 5.1 4.1 4.3 3.8 3.7 3.4 3.8 4.2 4.5 4.5 4.4 4.0 2.9 2.8 3.0 2.9 3.0 1.6 2.0 3.3
6.5 6.5 6.5 6.5 6.5 6.5 6.5 6.5 6.5 6.5 6.5 6.5 6.3 6.3 6.6 6.7 6.6 5.9 5.5 5.3 4.9 4.7 4.0 4.0 3.4 3.0 3.4 3.8 4.7 4.9 4.3 4.1 3.4 3.2 4.7 2.4 2.5 4.0 4.7 3.9 3.6 3.1 2.3 2.8 2.7 2.3 1.7 1.6 2.2
6.5 6.5 6.5 6.5 6.5 6.5 6.5 6.5 6.5 6.5 6.5 6.5 6.4 6.4 6.6 6.7 6.8 6.4 5.5 5.7 5.1 4.8 4.2 3.8 3.4 3.2 3.1 3.5 3.8 4.2 4.4 3.6 3.9 3.1 2.8 2.3 2.3 3.2 3.4 3.9 3.2 3.0 2.6 2.2 1.9 2.0 1.8 1.5 2.0
6.5 6.5 6.5 6.5 6.5 6.5 6.5 6.5 6.5 6.5 6.5 6.5 6.5 6.3 6.4 6.7 6.7 6.3 6.3 6.1 5.5 4.9 4.0 3.7 3.1 3.3 3.4 3.4 3.4 3.8 3.8 3.7 3.6 3.4 3.1 2.1 2.0 1.9 2.7 2.8 2.7 1.9 2.1 1.6 1.2 1.1 1.3 0.7 1.8
6.5 6.5 6.5 6.5 6.5 6.5 6.5 6.5 6.5 6.5 6.1 6.2 6.4 6.4 6.4 6.6 6.7 6.3 5.6 5.2 5.3 4.7 3.4 3.2 2.9 3.4 3.4 3.3 3.3 3.3 3.6 4.2 4.2 3.3 3.6 3.5 3.9 3.6 2.8 2.9 3.1 1.8 2.0 1.1 0.9 0.7 0.4 0.9 1.0
6.5 6.5 6.5 6.5 6.5 6.5 6.5 6.5 6.5 6.5 6.5 6.4 6.3 6.3 6.2 6.5 6.7 6.3 5.7 5.4 4.7 4.3 3.3 2.7 2.7 3.0 3.0 3.2 3.1 3.5 3.6 3.9 3.9 2.8 3.3 3.0 3.7 3.2 2.9 3.2 2.7 2.2 1.6 0.5 0.0 0.2 0.4 0.7 0.9
6.5 6.5 6.5 6.5 6.5 6.5 6.5 6.5 6.5 6.5 6.5 6.5 6.5 6.2 6.3 6.4 6.7 6.8 6.7 5.0 5.3 4.3 3.1 2.7 2.3 2.8 2.5 2.8 3.0 3.4 3.5 3.9 3.5 2.9 3.6 3.9 4.0 3.7 3.0 3.2 2.8 2.5 1.5 0.7 -0.3 -0.2 0.3 0.3 0.5
6.5 6.5 6.5 6.5 6.5 6.5 6.5 6.5 6.5 6.5 6.5 6.5 6.5 6.3 6.2 6.0 5.6 6.7 6.6 6.1 5.6 5.2 4.6 2.5 2.3 2.8 2.8 2.8 2.8 3.2 3.4 3.6 4.0 3.4 3.4 4.0 3.9 4.1 3.4 3.3 3.3 2.7 1.9 1.1 0.6 -0.4 0.2 0.2 0.8
6.5 6.5 6.5 6.5 6.5 6.5 6.5 6.5 6.5 6.5 6.5 6.6 6.2 6.1 6.1 5.7 5.4 4.8 6.3 5.1 5.7 4.0 5.1 3.6 2.3 2.4 2.5 2.8 2.8 2.8 3.1 3.3 3.7 4.0 3.9 3.3 4.0 3.0 3.7 3.6 3.4 2.9 2.4 1.5 1.4 0.8 1.0 0.6 0.3
Wind_Speed
15 14 4 1 1 1 3 2 4 3 2 4 9 9 10 11 3 5 9 7 13 6 14 19 21 22 22 20 19 19 18 18 18 18 18 17 16 15 14 12 10 10 10 9 9 10 9 9 8
13 9 1 2 2 1 2 4 3 4 11 16 14 10 10 6 7 12 10 12 13 12 13 15 20 20 21 20 19 17 18 17 16 17 17 16 15 14 13 11 10 9 9 8 9 8 7 7 6
13 3 2 1 1 3 2 6 11 13 13 5 6 12 5 4 12 12 14 16 16 12 13 16 19 19 20 19 18 17 17 16 15 16 15 14 13 12 11 10 8 8 7 7 7 6 5 5 4
5 1 2 2 5 5 3 14 16 14 8 11 15 11 7 9 11 9 18 16 13 12 15 19 20 20 20 19 17 17 15 15 14 14 13 12 11 10 9 8 7 6 6 5 5 4 4 3 3
3 3 3 4 4 2 8 14 16 13 8 15 9 10 7 8 14 19 18 16 13 11 14 18 19 19 19 18 17 16 15 13 13 12 11 10 9 8 7 6 5 4 4 3 4 4 5 4 3
2 4 4 4 4 7 6 18 14 15 16 18 15 11 4 13 18 17 16 15 15 12 12 16 18 20 19 18 17 16 14 13 12 11 9 8 7 6 5 4 2 1 3 3 4 4 4 3 4
7 1 4 9 12 13 19 18 16 17 15 7 13 9 8 13 14 17 17 14 13 15 12 13 15 18 19 18 17 16 14 12 11 10 8 7 6 5 4 2 2 1 0 1 2 1 1 1 4
6 3 4 7 10 10 17 10 16 23 8 16 13 7 13 17 18 16 15 14 13 10 10 10 13 15 15 15 17 16 14 12 11 9 8 8 7 5 3 4 5 4 3 2 1 2 0 1 3
7 4 3 7 3 11 21 15 14 9 18 8 4 12 21 21 19 13 14 11 10 10 9 9 9 12 15 14 15 15 14 13 12 10 10 10 7 5 6 5 6 5 4 2 2 1 1 1 3
5 3 6 9 5 8 21 26 17 12 18 7 17 17 20 21 18 17 17 13 11 11 11 10 9 11 14 13 14 15 14 14 13 11 12 12 8 8 10 10 6 5 3 6 6 2 4 4 1
4 6 5 11 3 5 19 23 16 25 15 23 25 23 21 19 16 18 15 16 14 14 11 12 10 13 13 11 13 13 14 15 15 15 15 12 8 8 14 11 6 6 7 3 5 1 1 3 3
5 8 9 9 15 3 13 18 18 23 14 25 27 28 24 20 17 19 19 17 14 15 14 14 13 12 14 11 12 11 9 11 10 14 14 11 6 8 9 7 8 6 8 4 1 4 2 5 5
6 6 15 16 13 8 8 19 20 15 24 21 25 25 24 22 20 19 21 19 17 16 15 15 14 13 13 9 10 8 9 10 12 11 13 14 6 4 9 7 7 5 7 4 3 3 2 2 2
8 9 15 20 15 7 11 14 9 19 24 24 27 26 22 24 22 18 16 17 18 18 16 16 14 13 16 10 7 7 10 12 13 12 14 16 13 9 7 6 6 5 6 7 4 1 0 2 3
13 7 15 14 19 8 10 6 16 25 28 27 27 24 21 22 21 20 19 18 20 17 16 17 15 13 13 11 10 10 11 12 12 15 16 16 14 11 8 5 2 2 10 6 4 3 1 2 3
3 2 4 14 15 4 6 11 21 27 27 27 27 22 20 21 23 18 19 17 17 15 15 15 14 14 11 9 8 8 9 8 7 12 15 18 15 13 9 3 2 4 6 6 2 1 2 0 3
2 4 7 5 12 6 4 5 22 25 24 23 22 22 16 16 19 18 20 19 18 16 17 16 16 15 13 8 6 7 7 3 7 11 14 15 16 15 9 5 5 5 5 2 2 1 2 2 1
6 3 2 4 17 29 11 5 22 22 23 24 22 21 18 15 18 19 22 21 17 14 17 18 14 14 12 7 5 3 3 3 4 7 10 16 15 15 10 6 6 6 3 3 2 2 2 1 1
5 7 7 4 7 18 17 14 23 23 19 21 21 21 20 21 18 14 21 21 18 14 16 18 16 13 10 4 4 3 4 3 2 5 12 12 13 11 9 5 3 6 5 4 3 2 1 1 1
12 15 13 5 3 2 11 16 19 17 24 25 22 20 21 20 18 17 20 22 21 18 18 18 17 16 12 9 7 3 4 4 3 4 7 13 13 14 11 6 5 4 4 5 4 3 1 1 0
13 17 8 6 3 4 7 2 6 6 3 10 18 22 21 23 21 19 19 22 22 21 19 19 18 18 15 12 6 1 2 2 3 3 3 5 14 12 11 9 5 5 4 5 4 4 4 1 2
14 15 9 7 5 9 8 5 8 15 12 14 18 20 21 23 23 20 22 20 22 21 19 19 17 18 15 15 12 12 7 8 5 4 4 6 11 11 12 10 8 6 4 5 4 3 3 3 2
14 10 9 9 6 3 3 3 6 10 19 13 18 21 24 24 24 23 24 25 25 22 20 19 18 17 16 17 16 12 8 6 4 3 7 6 6 11 11 10 8 6 5 5 6 5 4 3 3
11 8 6 4 4 10 13 13 6 9 10 20 18 22 23 22 22 23 24 23 21 20 20 18 19 18 18 18 17 17 15 8 6 4 4 4 4 6 6 10 8 7 6 7 5 5 5 4 4
11 6 5 5 6 10 11 11 12 19 13 21 25 24 21 24 23 22 22 21 20 20 20 18 20 20 18 19 18 17 15 12 11 8 6 5 4 3 6 7 7 6 6 6 6 6 5 5 4
10 16 9 8 4 5 6 9 10 12 15 25 27 27 22 26 24 25 24 24 23 22 22 22 22 21 20 19 18 15 14 9 8 8 7 7 9 9 10 10 9 8 9 7 6 4 4 4 4
10 11 11 7 3 2 4 7 8 12 8 18 26 22 24 27 26 27 26 24 24 22 24 25 23 23 21 20 17 16 14 13 10 8 8 7 7 7 10 12 10 10 9 7 8 5 5 5 4
19 7 5 1 12 15 5 7 6 8 14 17 24 24 26 26 27 24 23 23 22 22 23 24 23 24 22 21 17 15 16 16 11 9 11 10 9 9 10 11 12 11 10 9 8 6 5 6 4
8 11 3 6 9 13 8 15 8 10 12 14 21 29 26 22 23 25 21 22 23 20 20 22 22 23 20 19 18 17 15 16 16 12 11 13 12 13 12 13 13 12 11 8 8 7 7 7 6
21 16 13 11 8 5 16 19 3 10 10 16 19 22 22 17 19 24 27 26 20 23 22 22 21 22 22 21 19 18 16 16 16 17 15 12 13 11 13 14 14 13 12 11 11 10 8 8 8
Wind_Direction
160 161 148 62 61 209 256 209 137 107 61 357 68 105 94 36 71 147 144 145 136 138 152 138 133 131 128 124 119 114 113 109 108 113 110 111 111 105 105 104 96 87 82 79 76 73 72 75 79
162 152 108 122 265 159 222 168 158 115 114 107 88 82 52 71 76 112 122 147 146 144 150 141 137 130 131 126 122 123 116 116 116 112 111 109 109 114 112 108 101 92 84 75 67 63 63 61 64
168 123 100 151 234 228 133 148 134 127 144 113 108 86 72 84 114 137 134 146 141 146 151 150 138 137 135 132 129 125 123 120 121 116 115 117 117 118 118 112 104 96 85 79 78 76 70 61 45
162 81 119 229 221 260 169 138 137 147 130 82 102 75 81 112 147 136 142 143 143 149 152 147 148 144 142 140 134 131 131 130 126 122 123 122 126 120 120 123 119 100 85 72 80 95 92 74 50
59 18 310 269 230 259 129 139 133 129 80 99 107 91 81 88 114 139 143 147 146 149 151 152 149 148 148 145 143 141 137 139 134 131 130 135 130 129 134 139 125 108 101 76 71 65 70 59 45
57 7 288 330 322 125 156 136 126 111 110 108 99 100 87 134 140 151 149 145 150 146 145 150 151 148 149 151 151 151 151 146 142 141 141 140 139 147 164 169 149 136 74 67 70 69 73 85 75
92 238 252 288 262 133 142 140 134 130 138 131 128 106 134 148 149 143 148 147 148 147 147 146 153 152 154 158 160 159 160 154 153 156 154 159 170 179 204 233 279 295 95 57 73 68 28 60 80
120 193 276 238 173 160 149 121 141 139 137 122 131 156 164 166 158 151 143 148 149 148 147 150 157 155 159 162 165 165 167 164 171 174 175 187 199 200 229 248 261 272 263 255 286 283 252 336 74
183 158 291 324 140 134 145 133 152 118 135 164 223 146 162 161 156 150 145 147 147 153 153 158 156 150 154 165 171 171 173 179 185 188 198 211 204 217 252 258 255 247 262 291 222 190 269 279 41
193 139 228 208 243 174 151 149 140 137 155 136 112 138 161 159 159 158 159 156 158 160 166 167 163 161 164 170 177 177 185 193 199 201 213 221 214 218 230 243 259 255 243 305 273 218 305 224 35
213 180 215 293 171 98 142 146 144 147 175 155 153 156 163 164 167 168 164 166 172 172 170 173 173 174 177 178 182 187 200 201 210 209 215 221 226 228 231 228 210 230 213 321 281 207 332 320 179
185 228 230 263 267 169 156 142 162 164 178 161 157 161 162 167 170 174 167 170 170 173 180 176 177 180 190 186 188 194 198 206 214 217 214 218 223 214 200 227 216 224 193 220 251 247 312 299 270
231 161 203 233 201 150 180 184 172 190 150 156 153 162 168 169 172 175 173 173 171 179 181 182 179 184 191 192 189 190 203 202 213 219 219 212 202 176 172 194 224 237 171 198 210 244 318 325 274
212 218 221 222 244 175 185 193 127 158 153 154 160 170 176 173 175 173 174 172 177 182 181 182 184 187 186 197 177 195 207 209 207 215 221 206 197 176 177 165 181 176 176 182 196 192 164 312 320
238 271 269 245 211 205 155 109 148 154 157 159 169 173 179 182 177 176 177 181 183 182 177 181 185 186 189 191 180 197 216 203 206 209 204 188 193 181 167 172 162 173 175 178 188 134 42 40 9
182 152 236 271 153 158 105 176 159 160 162 163 172 179 179 186 186 184 180 186 189 180 183 185 185 186 187 188 180 183 192 167 190 194 187 184 186 186 181 178 164 207 170 165 166 125 48 333 40
8 206 207 283 196 126 185 196 169 165 166 169 173 179 176 171 189 190 186 187 192 184 178 184 187 184 187 190 177 177 201 203 170 189 185 181 184 188 185 176 202 188 172 155 172 121 135 53 336
224 237 235 169 152 179 187 176 169 173 171 173 178 180 184 185 192 182 185 188 188 187 183 177 184 184 185 183 173 176 174 217 174 178 187 179 187 186 190 195 202 177 159 160 157 127 48 182 228
233 259 252 306 214 176 185 171 167 177 179 183 184 182 186 187 197 172 183 186 187 179 178 177 181 188 185 166 164 172 193 191 199 201 194 193 195 193 197 202 197 168 172 176 163 129 97 339 41
238 250 260 271 181 57 189 179 180 173 185 186 184 188 192 192 187 184 180 182 188 179 185 179 182 185 189 184 182 178 180 208 168 194 209 191 187 192 204 179 203 184 150 150 156 143 131 287 85
230 230 225 207 234 123 118 16 238 249 209 183 198 192 193 192 190 190 185 185 186 188 183 185 181 184 185 180 166 132 67 9 134 184 202 203 201 192 192 193 187 175 155 162 174 159 127 168 343
239 231 221 230 237 226 160 232 201 227 244 187 194 196 200 199 198 191 188 189 190 192 189 184 177 179 182 177 181 191 185 201 220 192 182 200 191 192 202 190 183 167 164 165 176 154 150 128 187
241 234 206 215 225 137 285 161 248 190 223 219 202 201 203 201 199 193 195 192 193 188 189 189 182 177 179 183 185 188 194 195 185 207 198 195 184 189 194 180 170 165 170 168 168 163 166 149 142
228 256 235 208 160 234 219 201 245 203 200 217 210 206 202 202 204 202 200 196 194 191 188 186 184 185 181 182 187 188 194 191 194 210 204 193 182 192 182 174 176 164 163 168 173 172 167 154 130
198 154 246 246 221 232 203 218 220 210 202 203 205 208 202 200 201 203 200 198 194 190 188 185 186 189 188 187 189 190 192 190 194 192 196 168 169 162 183 176 177 175 174 170 162 166 177 167 162
203 205 204 211 212 216 202 219 239 228 208 198 210 211 201 201 198 200 200 198 195 190 186 186 188 192 191 191 191 190 191 195 201 192 187 186 187 182 183 184 181 176 174 166 167 168 175 173 180
219 206 198 196 209 308 213 259 291 241 210 215 211 204 202 201 200 200 200 201 193 188 187 188 188 193 192 194 193 195 193 193 196 185 184 176 181 181 183 181 182 180 180 172 168 175 180 180 186
209 180 204 227 217 241 255 230 221 212 219 196 207 207 202 198 201 203 203 197 199 193 190 188 190 190 192 193 193 195 196 197 194 182 189 186 191 194 181 185 187 184 184 174 172 174 180 184 199
200 210 232 183 196 226 242 248 197 235 212 208 203 200 197 185 191 197 198 202 202 193 187 191 191 193 193 194 193 195 196 196 200 199 192 191 191 195 184 188 192 190 185 175 178 181 179 188 203
220 215 196 220 243 245 227 237 242 198 223 195 199 203 201 177 181 196 201 200 185 187 190 193 192 194 194 191 194 196 193 192 200 207 205 195 195 189 191 190 193 193 189 181 187 185 193 191 199